Probability
10 10 13 10 10 13 13 3 0 3 0 0 6 3 3 0 3 3 3 3 0 3 3 3 3 3 3 6 6 6 6 6 0 0 3 6 6 3 3 6 3 3 0
10 10 13 13 10 10 10 10 6 3 3 3 3 0 0 0 0 3 3 3 3 0 0 3 3 3 3 3 3 3 3 6 3 0 3 6 3 6 3 3 0 0 3
6 6 10 10 10 10 10 3 3 3 0 0 0 0 0 0 0 3 3 3 3 0 0 0 0 0 3 0 3 3 3 3 6 10 3 6 3 3 3 0 0 3 0
6 6 10 6 10 10 6 10 0 0 0 0 0 0 3 0 0 0 3 3 3 0 0 0 0 0 0 0 0 3 3 3 6 6 6 0 0 0 0 0 0 10 0
3 6 6 6 6 3 3 3 3 3 0 0 0 3 3 3 0 0 3 0 3 3 0 0 0 0 0 0 0 0 0 0 0 6 6 0 0 0 0 0 0 0 3
3 3 3 3 3 3 0 3 3 3 3 3 0 0 3 0 0 0 0 3 3 3 0 0 0 0 0 0 0 0 0 0 0 0 0 0 0 0 0 0 0 0 0
3 3 3 3 0 0 0 0 0 3 6 3 0 0 3 0 0 0 0 3 3 3 0 0 0 0 0 0 0 0 0 0 0 0 0 0 0 0 0 0 0 0 0
3 0 0 0 0 3 3 3 3 3 10 6 3 3 6 3 0 0 0 0 3 3 0 0 0 0 0 0 0 0 0 0 0 0 0 0 0 0 0 0 0 0 0
0 0 0 0 0 0 3 6 3 3 6 6 3 3 6 6 0 0 0 0 0 0 0 0 0 0 0 0 0 0 0 0 0 0 0 0 0 0 0 0 0 0 0
0 0 0 3 0 0 3 10 3 3 3 3 3 10 6 6 3 0 0 0 0 0 0 0 0 0 0 0 0 0 0 0 0 0 0 0 0 0 0 0 0 0 0
0 0 3 0 0 3 3 6 3 0 3 3 3 10 6 3 0 0 0 0 0 0 0 0 0 0 0 0 0 3 0 0 0 0 0 0 0 0 0 0 0 0 0
0 0 0 0 3 0 3 3 0 0 0 0 3 3 3 3 0 0 0 0 0 0 0 0 0 0 0 0 0 0 0 0 0 0 0 0 0 0 3 3 0 0 0
0 0 3 3 3 3 10 3 0 0 0 0 0 0 0 0 3 0 0 0 0 0 6 0 0 0 0 0 0 0 0 0 0 0 0 0 0 0 0 3 3 3 0
0 0 0 0 3 6 6 6 3 0 0 0 0 0 0 0 0 3 0 0 0 0 0 0 0 0 0 0 0 0 0 0 0 0 0 0 0 0 0 0 0 0 0
3 3 3 0 0 3 6 3 0 6 3 0 0 0 0 0 0 0 0 0 0 0 0 0 0 0 0 0 0 0 0 0 0 0 0 0 0 0 0 0 0 0 0
3 3 0 0 0 3 0 0 0 0 0 0 0 0 0 0 0 0 0 0 0 0 0 0 0 0 0 0 0 0 0 0 0 0 0 0 0 0 0 0 0 0 0
3 3 0 0 0 3 3 0 0 0 0 0 0 0 0 0 0 0 0 0 0 0 0 0 0 0 0 0 0 0 0 0 0 0 0 0 0 0 0 0 0 0 0
3 0 0 3 6 6 3 3 6 3 3 3 0 0 0 0 0 0 0 0 0 0 0 0 0 0 0 0 0 0 0 0 0 0 0 0 0 0 0 0 0 0 0
0 0 3 3 6 3 3 3 0 3 3 3 0 0 0 0 0 0 0 0 0 0 0 0 0 0 0 0 0 0 0 0 0 0 0 0 0 0 0 0 0 0 0
3 0 0 0 0 0 0 0 0 0 0 0 0 0 0 0 0 0 0 0 0 0 0 0 0 0 0 0 0 0 0 0 0 0 0 0 0 0 0 0 0 0 0
0 0 0 0 0 0 0 0 0 0 3 3 3 0 0 0 0 0 0 0 0 0 0 0 0 0 0 0 0 0 0 0 0 0 0 0 0 0 0 0 0 0 0
3 0 0 0 0 0 0 0 0 0 0 0 3 0 0 0 0 0 0 0 0 0 0 0 0 0 0 0 0 0 0 0 0 0 0 0 0 0 0 0 0 0 0
0 0 0 0 0 0 0 0 0 0 0 0 0 0 0 0 0 0 0 0 0 0 0 0 0 0 0 0 0 0 0 0 0 0 0 0 0 0 0 0 0 0 0
0 0 0 0 0 0 0 0 0 0 0 0 0 0 0 0 0 0 0 0 0 0 0 0 0 0 0 0 0 0 0 0 0 0 0 0 0 0 0 0 0 0 0
0 0 0 0 0 0 0 0 0 0 0 3 0 0 0 0 0 0 0 0 0 0 0 0 0 0 0 0 0 0 0 0 0 0 0 0 0 0 0 0 0 0 0
0 0 0 0 0 0 0 0 0 0 0 0 0 0 0 0 0 0 0 0 0 0 0 0 0 0 0 0 0 0 0 0 0 0 0 0 0 0 0 0 0 0 0
Height
5748 5745 5742 5740 5738 5736 5733 5732 5730 5729 5727 5726 5725 5723 5722 5721 5719 5718 5716 5715 5714 5712 5710 5709 5707 5706 5704 5703 5702 5701 5700 5699 5698 5697 5695 5695 5694 5694 5694 5695 5695 5696 5697
5742 5739 5737 5734 5732 5730 5728 5727 5725 5724 5722 5721 5719 5718 5716 5715 5714 5712 5710 5709 5707 5706 5704 5702 5700 5699 5698 5696 5694 5693 5692 5690 5688 5687 5686 5686 5685 5685 5685 5685 5686 5686 5687
5737 5734 5732 5729 5727 5725 5723 5722 5720 5719 5717 5716 5714 5712 5711 5709 5708 5707 5705 5703 5701 5699 5697 5695 5693 5691 5690 5688 5687 5685 5683 5681 5680 5679 5678 5677 5677 5677 5677 5677 5676 5677 5677
5732 5729 5727 5725 5723 5721 5719 5717 5715 5714 5712 5711 5709 5707 5706 5704 5703 5701 5699 5697 5695 5693 5691 5689 5686 5684 5683 5681 5679 5677 5675 5674 5672 5671 5670 5669 5669 5668 5668 5668 5668 5668 5668
5726 5724 5722 5720 5718 5716 5714 5713 5711 5708 5707 5706 5704 5702 5701 5699 5698 5696 5694 5692 5689 5687 5685 5683 5680 5678 5675 5673 5671 5670 5668 5666 5665 5663 5662 5661 5660 5660 5659 5659 5659 5659 5660
5722 5720 5717 5715 5713 5712 5710 5708 5706 5704 5702 5700 5699 5697 5696 5694 5693 5691 5689 5687 5685 5682 5680 5677 5675 5672 5669 5666 5664 5662 5661 5659 5657 5656 5655 5654 5653 5652 5651 5651 5651 5651 5652
5717 5715 5712 5710 5709 5707 5705 5703 5702 5699 5697 5696 5694 5693 5691 5690 5689 5687 5685 5683 5680 5678 5675 5673 5670 5666 5663 5660 5658 5655 5654 5652 5651 5649 5648 5646 5645 5644 5644 5644 5643 5643 5643
5713 5710 5708 5706 5705 5703 5701 5699 5698 5695 5693 5692 5690 5688 5687 5686 5684 5683 5681 5678 5676 5674 5671 5668 5665 5661 5658 5655 5652 5650 5648 5646 5645 5643 5642 5640 5639 5638 5637 5637 5636 5636 5636
5709 5707 5705 5703 5701 5700 5698 5696 5694 5692 5690 5688 5686 5685 5683 5682 5680 5678 5677 5674 5672 5670 5667 5664 5661 5657 5654 5651 5648 5645 5643 5641 5639 5638 5637 5635 5633 5632 5631 5630 5630 5629 5629
5705 5703 5701 5699 5698 5696 5694 5692 5690 5688 5687 5685 5683 5682 5680 5679 5677 5675 5673 5671 5669 5666 5663 5660 5657 5653 5650 5647 5644 5641 5639 5637 5635 5633 5631 5630 5628 5627 5625 5624 5623 5623 5622
5702 5700 5698 5696 5695 5693 5691 5689 5687 5685 5684 5682 5681 5679 5677 5676 5674 5672 5670 5668 5665 5662 5659 5656 5653 5650 5647 5644 5640 5637 5635 5632 5630 5628 5626 5625 5624 5622 5620 5619 5617 5616 5615
5700 5698 5696 5694 5692 5690 5688 5686 5685 5683 5681 5680 5678 5677 5675 5673 5671 5669 5667 5664 5661 5659 5656 5653 5650 5647 5644 5640 5637 5634 5631 5628 5626 5623 5621 5620 5618 5617 5615 5613 5611 5609 5608
5698 5696 5694 5692 5690 5688 5686 5684 5682 5681 5679 5678 5676 5675 5673 5671 5668 5666 5664 5661 5658 5656 5653 5650 5647 5644 5641 5638 5634 5631 5628 5625 5622 5619 5617 5615 5613 5611 5609 5607 5606 5604 5602
5696 5694 5692 5690 5688 5686 5684 5683 5681 5679 5678 5676 5674 5673 5670 5668 5666 5663 5661 5658 5656 5653 5650 5647 5644 5641 5638 5634 5631 5628 5624 5620 5617 5614 5612 5610 5608 5606 5604 5602 5600 5598 5596
5694 5692 5690 5688 5686 5685 5683 5681 5680 5678 5676 5674 5672 5670 5668 5666 5664 5661 5658 5656 5653 5650 5647 5644 5641 5638 5635 5631 5628 5624 5620 5616 5613 5610 5607 5605 5603 5600 5598 5596 5594 5592 5590
5693 5691 5689 5687 5685 5683 5681 5679 5678 5676 5674 5672 5670 5668 5666 5663 5661 5659 5656 5653 5650 5647 5645 5642 5638 5635 5632 5628 5624 5621 5617 5614 5610 5607 5603 5601 5598 5595 5593 5590 5588 5586 5584
5691 5689 5687 5685 5684 5682 5680 5678 5676 5674 5671 5669 5667 5665 5663 5661 5659 5656 5653 5651 5648 5645 5642 5639 5635 5632 5628 5625 5621 5617 5614 5610 5607 5603 5600 5597 5594 5591 5588 5585 5582 5580 5578
5689 5688 5686 5684 5682 5680 5678 5676 5674 5672 5670 5667 5665 5663 5661 5658 5656 5653 5651 5648 5645 5642 5639 5635 5632 5628 5625 5621 5618 5614 5611 5607 5603 5600 5596 5593 5589 5586 5583 5580 5577 5575 5572
5686 5685 5684 5682 5680 5679 5677 5675 5672 5670 5668 5666 5663 5661 5659 5656 5654 5651 5649 5646 5643 5639 5636 5632 5628 5625 5621 5618 5614 5611 5607 5604 5600 5596 5593 5589 5585 5582 5579 5575 5572 5569 5566
5684 5683 5681 5680 5679 5677 5675 5673 5671 5668 5666 5664 5661 5659 5657 5654 5651 5649 5646 5643 5640 5636 5633 5629 5625 5622 5618 5615 5611 5608 5604 5600 5597 5593 5589 5585 5581 5578 5574 5571 5568 5564 5561
5681 5680 5679 5678 5677 5675 5674 5672 5670 5667 5665 5662 5660 5657 5654 5652 5649 5646 5644 5640 5637 5634 5630 5627 5623 5619 5615 5612 5608 5604 5601 5597 5593 5589 5585 5581 5577 5574 5570 5566 5563 5559 5556
5679 5678 5677 5676 5675 5673 5672 5670 5668 5665 5663 5660 5658 5655 5653 5650 5647 5644 5641 5638 5635 5632 5628 5625 5621 5617 5613 5609 5606 5602 5598 5594 5590 5586 5582 5578 5573 5570 5566 5562 5558 5554 5551
5676 5675 5674 5673 5672 5671 5669 5667 5665 5663 5661 5658 5656 5653 5651 5648 5645 5642 5639 5636 5633 5630 5626 5623 5619 5615 5611 5607 5603 5599 5595 5591 5586 5582 5578 5574 5570 5566 5562 5558 5554 5550 5546
5672 5671 5670 5670 5668 5667 5666 5664 5663 5661 5658 5656 5654 5651 5649 5646 5643 5640 5637 5634 5631 5628 5624 5620 5617 5613 5609 5605 5601 5596 5592 5588 5583 5579 5575 5571 5566 5562 5558 5554 5551 5546 5542
5669 5668 5667 5666 5665 5664 5662 5661 5659 5658 5656 5654 5652 5649 5647 5644 5642 5639 5636 5633 5629 5626 5622 5619 5615 5611 5607 5603 5598 5594 5589 5585 5580 5576 5572 5567 5563 5559 5555 5551 5547 5543 5539
5665 5664 5663 5663 5662 5660 5659 5658 5656 5655 5653 5651 5649 5647 5645 5643 5640 5637 5635 5631 5628 5625 5621 5617 5613 5609 5605 5600 5596 5591 5587 5582 5578 5573 5569 5565 5560 5556 5551 5547 5543 5539 5535
Wind_Speed
26 26 26 24 23 23 22 21 20 19 19 19 19 18 18 18 19 20 21 21 21 22 23 23 24 24 24 24 25 26 27 28 28 28 29 30 30 30 30 32 33 34 35
26 25 24 22 22 21 21 20 20 20 20 19 19 19 18 18 19 20 20 21 21 22 23 24 24 24 23 23 24 26 27 28 28 27 27 28 29 28 28 29 31 32 32
23 22 21 20 19 19 19 19 19 20 19 19 19 19 18 18 18 19 19 20 21 22 23 24 24 23 23 23 24 25 26 27 27 27 26 26 26 27 27 28 29 30 31
22 21 20 20 19 18 18 18 19 19 19 19 18 18 17 17 18 18 19 19 20 20 21 22 23 23 23 24 24 24 25 25 25 24 24 25 26 27 28 28 28 29 30
21 21 20 18 18 18 18 18 19 19 18 18 17 17 17 17 17 18 18 19 18 19 19 20 21 21 22 23 22 22 23 23 23 24 24 25 25 26 28 28 28 28 29
20 19 19 18 17 17 18 18 18 18 17 16 16 16 16 16 16 16 17 17 17 17 18 18 19 19 20 21 21 21 22 22 22 22 23 24 24 24 25 26 27 28 29
19 19 18 17 17 17 17 17 17 16 16 15 14 15 15 15 15 16 15 15 16 16 17 18 19 19 19 19 19 20 20 20 20 21 21 21 22 21 21 23 25 26 27
18 17 16 16 15 15 15 15 15 15 14 13 13 13 13 14 14 14 15 15 16 17 18 18 19 19 18 18 18 18 18 18 18 18 18 19 19 19 20 20 22 22 23
18 17 15 15 14 14 14 14 13 13 13 12 12 11 12 12 12 13 14 14 15 16 17 17 17 17 17 17 17 17 17 16 16 17 17 17 17 18 19 19 20 21 21
16 15 14 14 15 14 14 13 13 12 12 11 11 11 11 11 12 12 13 14 14 15 16 16 16 16 16 16 16 16 16 16 16 16 16 16 17 18 19 20 21 22 22
16 15 14 14 14 14 14 13 12 12 11 10 10 10 10 11 11 12 12 13 15 15 15 16 15 15 16 16 16 16 16 16 15 15 16 16 17 18 19 20 21 22 22
15 14 14 13 13 13 13 12 12 11 9 9 9 10 10 11 12 12 13 13 14 14 14 14 15 16 16 16 16 16 15 15 15 15 16 16 17 18 18 19 19 19 20
14 14 13 13 12 12 12 11 10 8 8 8 9 10 11 12 12 12 13 13 13 13 13 14 15 16 16 16 16 16 16 16 16 15 15 15 16 17 17 17 18 19 19
13 13 13 13 12 11 11 10 9 8 8 8 9 10 11 11 12 12 12 12 13 13 13 14 15 16 16 16 17 17 17 17 16 16 16 16 16 17 17 18 19 19 20
13 12 12 12 11 10 10 9 9 8 8 9 10 11 11 11 12 12 12 12 12 13 14 15 15 16 16 16 17 17 18 18 18 17 17 16 16 17 17 18 19 20 21
11 11 11 10 9 9 9 9 9 10 10 10 10 10 11 12 12 12 12 12 13 14 14 15 15 16 16 16 17 18 18 18 18 18 17 17 17 17 18 18 18 19 20
12 11 10 9 8 9 9 10 9 10 11 11 11 10 11 12 12 12 12 13 13 14 14 15 15 16 16 17 17 17 18 18 18 18 18 17 18 18 18 17 17 18 19
12 11 9 8 8 9 9 10 10 10 11 11 12 11 11 12 12 12 12 13 14 14 15 16 16 17 17 17 16 17 18 18 18 18 19 18 18 18 18 18 18 19 18
12 10 8 8 8 9 9 9 9 10 10 11 12 11 11 12 11 12 13 14 15 15 16 16 17 17 16 16 16 17 18 18 19 19 19 19 19 18 18 18 18 19 19
10 9 8 8 8 8 8 9 9 9 10 11 11 11 12 12 12 12 13 14 15 15 16 16 17 16 16 16 16 17 18 18 19 19 19 19 19 19 19 19 19 19 19
9 9 8 8 8 9 9 9 9 10 10 11 11 11 12 12 12 12 13 13 14 15 16 16 17 17 17 16 17 17 18 19 19 19 19 19 19 19 19 19 19 19 19
9 9 8 8 8 9 10 10 9 10 10 10 10 11 11 11 12 12 13 13 14 15 16 17 17 18 18 17 18 18 19 19 20 20 20 20 20 19 19 20 20 20 19
9 9 9 9 9 9 9 9 10 10 11 11 10 11 11 11 12 13 13 14 14 15 16 17 17 18 19 19 19 19 20 20 20 20 20 20 20 20 20 20 20 20 19
10 10 10 10 9 9 9 9 10 10 10 10 10 10 11 11 12 13 14 14 15 16 17 17 18 19 19 20 20 20 20 21 21 20 21 21 20 20 20 20 20 20 19
10 10 9 9 9 9 9 9 10 10 9 9 9 10 11 11 12 13 14 15 15 16 17 18 18 18 19 20 20 20 20 21 21 21 21 21 21 21 20 20 20 20 19
10 9 9 9 9 9 9 9 8 8 8 8 9 10 11 11 12 13 14 15 16 16 17 18 19 19 19 20 20 21 21 21 21 21 21 21 21 21 21 20 20 20 19
Wind_Direction
305 305 306 306 306 304 300 298 297 296 293 292 293 294 293 292 290 291 291 287 286 287 287 287 285 284 282 278 278 277 278 278 277 275 271 269 267 265 263 261 261 259 258
307 306 306 307 305 304 302 299 297 296 294 295 294 296 295 293 294 294 291 288 288 290 290 289 288 286 284 283 282 280 279 278 278 275 273 271 267 264 263 262 262 261 260
308 307 307 307 306 305 303 301 298 296 295 295 296 296 295 292 293 296 293 290 290 291 290 290 289 288 287 286 286 284 282 280 279 277 273 271 269 265 264 264 263 262 261
307 307 307 306 305 305 305 303 300 297 294 294 296 297 295 293 292 295 294 294 293 293 292 291 290 290 289 287 287 285 283 281 281 279 277 274 272 269 267 264 263 262 262
307 305 304 305 305 305 303 301 303 299 294 296 298 297 294 296 296 297 297 297 296 295 296 297 297 297 293 291 288 286 285 283 281 279 278 276 275 271 268 265 265 265 264
308 308 308 303 303 303 302 301 302 302 299 298 297 295 295 298 300 302 304 304 304 304 304 304 304 302 299 296 294 291 289 286 283 280 280 278 277 274 270 266 265 264 263
309 307 310 309 307 305 303 304 304 305 304 302 299 297 297 298 299 303 306 307 310 311 310 307 307 308 306 302 300 298 293 289 286 284 283 281 279 276 272 266 262 263 262
314 311 311 312 312 312 312 309 309 308 307 309 306 303 303 303 301 304 307 308 312 312 310 310 312 313 313 307 304 302 299 295 291 289 289 288 284 279 276 272 267 265 263
317 314 312 313 313 315 316 315 314 314 314 315 310 309 310 309 308 308 309 310 312 314 314 315 317 318 318 313 309 308 306 302 298 295 295 292 287 286 284 276 272 270 267
323 319 315 313 314 313 318 319 317 317 316 316 314 313 314 312 312 310 313 314 316 318 319 320 321 322 324 324 320 317 315 309 302 297 296 292 289 289 287 283 279 278 275
326 323 322 319 317 314 317 317 319 318 315 314 314 316 317 317 317 315 317 317 318 321 323 325 326 327 327 328 326 323 319 314 307 303 300 296 292 291 290 286 283 282 281
330 330 330 328 324 321 321 320 319 319 318 315 317 321 323 323 322 322 323 324 324 325 328 330 332 331 331 330 328 327 325 322 316 310 305 301 298 297 295 293 291 289 286
331 331 332 330 326 324 323 324 323 320 320 318 321 327 328 326 327 329 329 330 329 329 329 330 331 331 332 334 333 331 328 326 321 317 312 308 303 302 300 297 295 294 293
330 329 330 331 327 326 328 327 324 323 326 329 328 330 332 333 333 334 331 329 332 330 330 331 331 332 333 334 334 333 331 330 326 321 316 312 307 305 303 300 298 296 294
329 333 333 333 334 332 332 333 334 331 330 332 330 329 331 332 333 333 331 331 332 331 330 332 333 334 333 333 334 335 334 332 327 324 320 316 312 308 305 302 300 299 297
326 333 334 333 334 337 336 334 336 335 331 330 328 329 331 332 332 333 334 332 331 330 329 331 332 332 331 330 332 334 333 331 331 330 326 321 317 313 308 304 300 301 301
323 326 328 329 332 333 332 334 333 333 333 333 332 329 329 331 332 334 336 336 334 332 331 331 331 331 332 333 333 333 333 332 333 333 331 326 323 320 315 311 306 304 302
317 320 322 324 328 329 331 330 329 329 332 334 335 332 332 333 332 332 335 337 336 335 334 333 333 332 332 333 333 333 333 334 334 334 332 329 326 323 318 314 311 308 304
311 315 316 318 327 331 330 330 330 332 332 332 332 330 331 332 332 334 337 339 338 335 335 336 334 333 333 335 336 336 336 336 335 333 331 331 329 326 323 320 317 314 310
309 311 313 316 325 330 328 328 327 329 330 329 328 327 330 332 334 337 338 339 339 337 335 337 337 337 337 338 339 338 337 337 336 334 332 331 330 328 326 324 321 318 315
305 308 308 312 319 323 322 324 325 327 330 331 330 329 330 333 336 337 337 338 340 340 339 339 341 340 338 339 340 341 339 337 335 335 335 334 332 330 328 326 324 321 318
303 306 303 303 309 315 318 320 323 326 330 333 332 332 334 336 339 340 340 341 343 343 342 341 340 340 341 341 340 340 339 337 336 337 336 334 333 333 331 330 329 326 322
297 300 302 302 304 308 313 314 317 320 324 327 330 334 337 338 339 339 340 341 341 342 342 342 343 344 343 341 340 339 338 338 337 337 337 336 335 334 335 334 332 331 328
294 297 301 301 301 302 304 307 312 316 319 323 329 335 338 340 341 341 343 343 343 344 345 344 344 343 342 341 341 340 340 340 340 340 340 340 338 337 337 336 336 334 333
294 296 298 301 304 302 301 303 309 315 319 322 328 335 338 340 341 342 344 347 348 348 348 348 346 345 344 343 343 341 341 342 343 342 342 342 341 339 339 338 338 338 336
288 290 291 295 301 301 301 304 307 312 314 315 323 333 338 339 341 343 345 347 349 349 349 349 349 348 346 344 343 344 343 342 343 345 346 345 344 343 343 342 341 339 338